sat.trackr.live / text

‹ back to catalog

LEMUR-2-LAILA

NORAD 66776 · 2025-276DQ

PAYLOAD ACTIVE UNKNOWN

§ Identity

Operator
Country
US
Launch date
2025-11-28
Launch site
AFWTR
Launch vehicle
Mass (kg)
RCS (m²)

Purposes: earth_obs

External: N2YO · Heavens-Above · Gunter

§ Orbital elements

Epoch: 2026-05-25T03:09:03.758400Z

Period
94.68 min
Inclination
97.4178°
Eccentricity
0.0000653
Mean motion
15.20972188 rev/d
Perigee alt
502.5 km
Apogee alt
503.4 km
Semi-major
6,881.0 km
B*
2.4984e-4
RAAN
219.3640°
Arg perigee
146.9225°
Mean anomaly
213.2052°
Rev number
2,694

§ Raw data

LEMUR-2-LAILA1 66776U 25276DQ  26145.13129350  .00005467  00000+0  24984-3 0  99972 66776  97.4178 219.3640 0000653 146.9225 213.2052 15.20972188 26947

JSON: /api/v1/satellites/66776 · /tle

For live sub-satellite position, see the globe view (requires WebGL).

§ Visibility from observer

Set your observer location to see the next 7 days of passes ≥ 10°. The values pass through the URL so the page stays shareable.

No JS? Fill the form by hand. The geolocation button needs JavaScript.